Find Starlink 3737

NORAD ID: 52114 Int'l Des: 2022-029 Owner: SPXS Country: US Constellation: starlink operational
LEOCIRCULAR

Current View

Loading 3D Globe...

About Starlink 3737

Description loading...

Upcoming Passes

Passes for default location (London). Set your location on the main map for personalized predictions.

Altitude History

Loading altitude history...

Two-Line Element Set

1 52114U 22029AC 26150.16053581 .00001995 00000-0 14339-3 0 9998
2 52114 53.1995 73.3754 0001755 64.9123 295.2051 15.08844659233089
Epoch: May 30, 2026 • Age: 7 hours

Current Status

Altitude 540.4 km
Velocity 7.60 km/s
Sub-Earth Point 30.62°N, 54.55°E
Launch Date Mar 19, 2022
Age 4.1 years
Type internet

Technical Details

Classification Payload
Mass 297.00 kg
Dry Mass 275.00 kg
Total Mass 297.00 kg
Length 0.20 m
Diameter 2.80 m
Span 9.00 m
Shape Box + pan
Manufacturer SPXS
Bus Type Starlink
Phase Status In Orbit
Owner/State SPXS/US

Most Searched